N0YUV Weather Reports


Display with metric or nautical units.
time (UTC)temp
F
wind
direction
speed
MPH
gust
MPH
rain 1hr
in
rain 24hr
in
rain mn
in
humidity
%
barometer
mb
20260507044601 45 360 0.0 0.0 0.00 0.00 0.00 48 1016.1
20260507043051 47 360 0.0 0.0 0.00 0.00 0.00 46 1016.2
20260507041550 48 360 0.0 0.0 0.00 0.00 0.00 43 1016.5
20260507040048 48 360 0.0 0.0 0.00 0.00 0.00 42 1016.5
20260507034547 48 360 0.0 0.0 0.00 0.00 0.00 41 1016.7
20260507033059 48 360 0.0 0.0 0.00 0.00 0.00 42 1016.9
20260507031556 48 360 0.0 0.0 0.00 0.00 0.00 40 1016.9
20260507024604 52 360 0.0 0.0 0.00 0.00 0.00 40 1016.9
20260507023043 53 360 0.0 0.0 0.00 0.00 0.00 36 1016.8
20260507021551 53 360 0.0 0.0 0.00 0.00 0.00 36 1016.7
20260507020054 54 360 0.0 0.0 0.00 0.00 0.00 35 1016.7
20260507014551 55 360 0.0 0.0 0.00 0.00 0.00 34 1016.6
20260507013042 56 360 0.0 0.0 0.00 0.00 0.00 33 1016.7
20260507011546 56 360 0.0 0.0 0.00 0.00 0.00 33 1016.6
20260507010044 57 360 0.0 0.0 0.00 0.00 0.00 33 1016.6
20260507004538 57 360 0.0 0.0 0.00 0.00 0.00 32 1016.6
20260507003037 58 360 0.0 0.0 0.00 0.00 0.00 32 1016.7
20260507001537 58 360 0.0 0.0 0.00 0.00 0.00 32 1016.9
20260507000036 58 360 0.0 0.0 0.00 0.00 0.00 31 1017.0
20260506234550 58 360 0.0 0.0 0.00 0.00 0.00 31 1017.1
20260506233044 59 360 0.0 0.0 0.00 0.00 0.00 32 1017.3
20260506231535 59 360 0.0 0.0 0.00 0.00 0.00 32 1017.3
20260506230034 59 360 0.0 0.0 0.00 0.00 0.00 32 1017.5
20260506224535 59 360 0.0 0.0 0.00 0.00 0.00 31 1017.6
20260506223034 59 94 0.0 0.0 0.00 0.00 0.00 31 1017.6
20260506221533 60 93 0.0 0.0 0.00 0.00 0.00 30 1017.7
20260506220032 60 94 0.0 0.0 0.00 0.00 0.00 29 1017.8
20260506214532 61 94 0.0 0.0 0.00 0.00 0.00 30 1017.9
20260506213032 62 94 0.0 0.0 0.00 0.00 0.00 30 1018.0
20260506211529 62 93 0.0 0.0 0.00 0.00 0.00 29 1018.3
20260506210031 61 93 0.0 0.0 0.00 0.00 0.00 33 1018.5
20260506204522 59 93 0.0 0.0 0.00 0.00 0.00 33 1018.8
20260506203032 59 92 0.0 0.0 0.00 0.00 0.00 32 1019.0
20260506201520 59 92 0.0 0.0 0.00 0.00 0.00 33 1019.2
20260506200017 58 92 0.0 0.0 0.00 0.00 0.00 33 1019.4
20260506194518 59 360 0.0 0.0 0.00 0.00 0.00 32 1019.5
20260506193016 58 360 0.0 0.0 0.00 0.00 0.00 34 1019.5
20260506191517 58 360 0.0 0.0 0.00 0.00 0.00 33 1019.6
20260506190114 57 360 0.0 0.0 0.00 0.00 0.00 33 1019.8
20260506184514 58 360 0.0 0.0 0.00 0.00 0.00 35 1019.9
20260506183016 57 360 0.0 0.0 0.00 0.00 0.00 37 1020.0
20260506181513 57 360 0.0 0.0 0.00 0.00 0.00 36 1020.1
20260506180014 58 360 0.0 0.0 0.00 0.00 0.00 34 1020.4
20260506174510 58 360 0.0 0.0 0.00 0.00 0.00 37 1020.6
20260506173016 56 360 0.0 0.0 0.00 0.00 0.00 40 1020.7
20260506171505 56 360 0.0 0.0 0.00 0.00 0.00 39 1020.8
20260506170004 55 360 0.0 0.0 0.00 0.00 0.00 39 1021.0
20260506164502 56 360 0.0 0.0 0.00 0.00 0.00 40 1020.9
20260506163107 54 360 0.0 0.0 0.00 0.00 0.00 40 1021.0
20260506161639 54 360 0.0 0.0 0.00 0.00 0.00 41 1021.1
20260506160103 54 360 0.0 0.0 0.00 0.00 0.00 39 1020.9
20260506154555 55 360 0.0 0.0 0.00 0.00 0.00 43 1021.0
20260506153056 53 360 0.0 0.0 0.00 0.00 0.00 43 1021.2
20260506151549 53 360 0.0 0.0 0.00 0.00 0.00 46 1021.1
20260506150044 51 360 0.0 0.0 0.00 0.00 0.00 47 1021.2
20260506144542 50 94 0.0 0.0 0.00 0.00 0.00 48 1021.2
20260506143037 48 94 0.0 0.0 0.00 0.00 0.00 55 1021.2
20260506141532 46 360 0.0 0.0 0.00 0.00 0.00 58 1021.2
20260506140027 44 360 0.0 0.0 0.00 0.00 0.00 64 1021.1
20260506134522 41 360 0.0 0.0 0.00 0.00 0.00 68 1021.0
20260506133020 39 360 0.0 0.0 0.00 0.00 0.00 70 1020.8
20260506131528 38 360 0.0 0.0 0.00 0.00 0.00 71 1020.6
20260506130018 37 360 0.0 0.0 0.00 0.00 0.00 71 1020.6
20260506124515 36 360 0.0 0.0 0.00 0.00 0.00 71 1020.5
20260506123013 35 360 0.0 0.0 0.00 0.00 0.00 70 1020.4
20260506121512 35 360 0.0 0.0 0.00 0.00 0.00 70 1020.3
20260506120009 35 360 0.0 0.0 0.00 0.00 0.00 68 1020.0
20260506114504 35 360 0.0 0.0 0.00 0.00 0.00 68 1019.5
20260506113005 36 360 0.0 0.0 0.00 0.00 0.00 68 1019.1
20260506111559 36 360 0.0 0.0 0.00 0.00 0.00 67 1019.1
20260506104558 37 360 0.0 0.0 0.00 0.00 0.00 66 1019.0
20260506103058 37 360 0.0 0.0 0.00 0.00 0.00 64 1019.0
20260506101559 37 360 0.0 0.0 0.00 0.00 0.00 64 1018.7
20260506100105 38 360 0.0 0.0 0.00 0.00 0.00 63 1018.6
20260506094550 38 360 0.0 0.0 0.00 0.00 0.00 62 1018.4
20260506093048 38 360 0.0 0.0 0.00 0.00 0.00 62 1018.4
20260506091543 39 360 0.0 0.0 0.00 0.00 0.00 62 1018.4
20260506090042 39 360 0.0 0.0 0.00 0.00 0.00 61 1018.3
20260506084559 40 360 0.0 0.0 0.00 0.00 0.00 61 1018.2
20260506083039 40 360 0.0 0.0 0.00 0.00 0.00 61 1018.0
20260506081541 41 360 0.0 0.0 0.00 0.00 0.00 60 1018.1
20260506073040 41 360 0.0 0.0 0.00 0.00 0.00 57 1017.8
20260506071527 42 360 0.0 0.0 0.00 0.00 0.00 56 1017.6
20260506061521 43 360 0.0 0.0 0.00 0.00 0.00 53 1017.5